Waarnemingen

Advertentie
Mijn weer
Santiago de Compostela/Labacolla, Spanje (8042): temperatuur & dauwpunt: 08.08.2018 08:00:00 - 14.08.2018 08:00:00 (CEST)Santiago de Compostela/Labacolla, Spanje (8042): windsnelheid: 08.08.2018 08:00:00 - 14.08.2018 08:00:00 (CEST)Santiago de Compostela/Labacolla, Spanje (8042): windrichting: 08.08.2018 08:00:00 - 14.08.2018 08:00:00 (CEST)Santiago de Compostela/Labacolla, Spanje (8042): luchtdruk: 08.08.2018 08:00:00 - 14.08.2018 08:00:00 (CEST)Santiago de Compostela/Labacolla, Spanje (8042): zicht: 08.08.2018 08:00:00 - 14.08.2018 08:00:00 (CEST)
Datum & Tijd tt [°C] td [°C] ff [km/u] ff [kn] dd ppp [hPa] vv [km]
14.08.2018 08:00:00 15,4 13,9 5 3 NNO 1021,2 30
14.08.2018 07:00:00 15,0 13,9 4 2 NNO 1021,0 30
14.08.2018 06:00:00 14,2 12,9 4 2 NNO 1020,8 30
14.08.2018 05:00:00 13,8 12,5 5 3 NNO 1020,8 30
14.08.2018 04:00:00 13,5 12,7 4 2 NNO 1021,0 23
14.08.2018 03:00:00 14,0 13,5 8 4 N 1021,0 24
14.08.2018 02:00:00 14,2 13,7 4 2 NNO 1021,0 20
14.08.2018 01:00:00 14,6 14,0 8 4 N 1020,9 20
14.08.2018 00:00:00 15,0 13,9 13 7 N 1020,8 30
13.08.2018 23:00:00 15,2 13,9 13 7 N 1020,5 20
13.08.2018 22:00:00 16,0 14,0 16 9 N 1019,9 30
13.08.2018 21:00:00 16,9 14,5 13 7 N 1019,3 30
13.08.2018 20:00:00 19,2 15,3 8 4 NNO 1018,8 28
13.08.2018 19:00:00 18,9 15,8 9 5 N 1019,0 30
13.08.2018 18:00:00 19,7 16,2 8 4 N 1018,6 30
13.08.2018 17:00:00 20,3 15,3 9 5 N 1018,7 30
13.08.2018 16:00:00 20,6 14,1 5 3 NNW 1018,8 30
13.08.2018 15:00:00 19,9 15,1 5 3 WNW 1018,8 30
13.08.2018 14:00:00 19,9 15,2 4 2 NNO 1018,9 30
13.08.2018 13:00:00 18,7 15,5 8 4 WNW 1019,3 30
13.08.2018 12:00:00 16,9 15,0 4 2 Z 1019,4 18
13.08.2018 11:00:00 16,1 15,1 8 4 Z 1019,2 10
13.08.2018 10:00:00 15,4 15,1 5 3 Z 1018,9 7
13.08.2018 09:00:00 14,7 14,4 2 1 ZZW 1018,6 2,8
13.08.2018 08:00:00 14,2 13,9 2 1 ZZO 1018,1 2,0
13.08.2018 07:00:00 14,2 13,8 9 5 ZZW 1017,9 6
13.08.2018 06:00:00 14,2 13,9 8 4 Z 1017,7 -
13.08.2018 05:00:00 14,4 13,8 2 1 Z 1017,7 15
13.08.2018 04:00:00 14,3 13,7 9 5 Z 1017,8 15
13.08.2018 03:00:00 14,5 13,5 9 5 ZZW 1018,1 8
13.08.2018 02:00:00 15,0 13,2 8 4 Z 1018,3 20
13.08.2018 01:00:00 15,4 12,9 4 2 ZW 1018,3 23
13.08.2018 00:00:00 15,1 12,6 5 3 W 1018,4 27
12.08.2018 23:00:00 16,5 13,8 15 8 WNW 1017,8 30
12.08.2018 22:00:00 17,3 14,9 11 6 W 1017,1 30
12.08.2018 21:00:00 18,0 15,8 9 5 W 1016,6 30
12.08.2018 20:00:00 18,9 16,3 13 7 WZW 1016,5 20
12.08.2018 19:00:00 18,6 17,6 9 5 ZZW 1016,8 7
12.08.2018 18:00:00 19,9 18,1 8 4 ZZW 1016,6 30
12.08.2018 17:00:00 19,2 18,2 11 6 ZW 1016,9 8
12.08.2018 16:00:00 19,6 18,4 11 6 ZW 1017,0 10
12.08.2018 15:00:00 19,8 18,2 15 8 ZZW 1017,3 2,9
12.08.2018 14:00:00 20,1 17,6 15 8 Z 1017,3 20
12.08.2018 13:00:00 18,0 16,2 11 6 ZZW 1018,0 20
12.08.2018 12:00:00 19,3 15,0 11 6 ZZW 1017,5 26
12.08.2018 11:00:00 17,1 15,3 8 4 ZZW 1017,6 30
12.08.2018 10:00:00 15,1 14,5 2 1 ZZO 1017,9 12
12.08.2018 09:00:00 13,7 13,5 4 2 ZZO 1018,1 5
12.08.2018 08:00:00 12,4 12,2 8 4 Z 1018,1 0,8
12.08.2018 07:00:00 12,6 12,4 5 3 Z 1018,2 -
12.08.2018 06:00:00 12,7 12,5 8 4 WNW 1018,4 -
12.08.2018 05:00:00 13,1 12,9 2 1 W 1018,5 0,8
12.08.2018 04:00:00 13,3 13,1 4 2 WNW 1019,1 8
12.08.2018 03:00:00 14,4 14,2 8 4 NW 1019,4 -
12.08.2018 02:00:00 15,3 14,7 2 1 NNO 1019,7 3,0
12.08.2018 01:00:00 15,9 14,6 0 0 N 1020,3 11
12.08.2018 00:00:00 16,8 14,8 4 2 NNO 1020,5 18
11.08.2018 23:00:00 17,9 13,4 4 2 N 1020,4 30
11.08.2018 22:00:00 19,2 11,6 11 6 N 1019,8 30
11.08.2018 21:00:00 21,6 11,6 16 9 N 1019,3 30
11.08.2018 20:00:00 24,3 12,6 15 8 N 1018,8 30
11.08.2018 19:00:00 26,1 15,0 18 10 N 1018,7 30
11.08.2018 18:00:00 26,7 16,4 18 10 N 1018,7 30
11.08.2018 17:00:00 28,6 14,5 11 6 NNW 1018,6 40
11.08.2018 16:00:00 27,7 13,6 11 6 NNW 1019,4 30
11.08.2018 15:00:00 27,4 15,6 8 4 N 1019,8 30
11.08.2018 14:00:00 26,0 15,5 5 3 O 1020,2 40
11.08.2018 13:00:00 24,2 15,2 5 3 N 1020,7 30
11.08.2018 12:00:00 22,0 16,0 5 3 NO 1021,2 30
11.08.2018 11:00:00 19,5 15,3 5 3 N 1021,9 30
11.08.2018 10:00:00 17,2 14,2 0 0 N 1022,4 30
11.08.2018 09:00:00 14,3 13,0 2 1 N 1023,0 25
11.08.2018 08:00:00 12,7 11,8 0 0 N 1023,0 15
11.08.2018 07:00:00 12,9 12,0 2 1 NO 1022,7 15
11.08.2018 06:00:00 12,6 11,8 4 2 N 1023,1 18
11.08.2018 05:00:00 12,9 11,8 2 1 NNO 1023,3 15
11.08.2018 04:00:00 13,4 12,1 0 0 N 1023,5 23
11.08.2018 03:00:00 13,2 11,9 0 0 N 1024,2 21
11.08.2018 02:00:00 13,7 12,3 0 0 N 1024,7 25
11.08.2018 01:00:00 14,2 12,4 2 1 NNO 1024,7 23
11.08.2018 00:00:00 15,8 13,5 8 4 N 1024,3 30
10.08.2018 23:00:00 15,5 13,2 13 7 NNW 1024,5 25
10.08.2018 22:00:00 16,8 13,5 15 8 NNW 1023,7 30
10.08.2018 21:00:00 19,0 14,5 11 6 N 1023,1 30
10.08.2018 20:00:00 20,3 14,2 18 10 N 1022,8 40
10.08.2018 19:00:00 21,3 14,5 11 6 N 1022,8 30
10.08.2018 18:00:00 22,5 15,0 16 9 N 1022,6 30
10.08.2018 17:00:00 23,1 14,9 11 6 N 1022,5 40
10.08.2018 16:00:00 22,6 13,8 9 5 N 1023,0 30
10.08.2018 15:00:00 21,7 12,6 8 4 N 1023,6 40
10.08.2018 14:00:00 20,6 13,5 13 7 N 1023,8 40
10.08.2018 13:00:00 19,8 12,6 8 4 NNO 1024,2 30
10.08.2018 12:00:00 18,1 12,1 8 4 NNO 1024,6 30
10.08.2018 11:00:00 15,7 11,5 8 4 NNO 1025,0 40
10.08.2018 10:00:00 14,0 10,8 4 2 NO 1025,2 29
10.08.2018 09:00:00 11,4 9,8 2 1 NNO 1025,5 30
10.08.2018 08:00:00 9,9 8,9 4 2 NW 1025,5 12
10.08.2018 07:00:00 10,3 9,1 4 2 N 1025,4 30
10.08.2018 06:00:00 10,5 9,6 0 0 N 1025,2 28
10.08.2018 05:00:00 10,7 9,5 8 4 N 1025,5 30
10.08.2018 04:00:00 10,8 9,6 9 5 N 1025,5 22
10.08.2018 03:00:00 11,7 10,4 5 3 N 1025,9 30
10.08.2018 02:00:00 12,1 10,8 8 4 N 1026,2 30
10.08.2018 01:00:00 12,6 11,0 9 5 N 1026,3 30
10.08.2018 00:00:00 13,0 11,1 13 7 N 1026,2 30
09.08.2018 23:00:00 13,9 11,2 18 10 N 1025,6 30
09.08.2018 22:00:00 14,7 11,1 16 9 N 1024,8 30
09.08.2018 21:00:00 16,4 10,0 15 8 N 1024,0 30
09.08.2018 20:00:00 17,9 10,6 13 7 N 1023,3 30
09.08.2018 19:00:00 18,6 10,9 18 10 N 1023,1 30
09.08.2018 18:00:00 19,1 10,9 22 12 N 1023,0 30
09.08.2018 17:00:00 20,3 12,2 22 12 N 1022,9 30
09.08.2018 16:00:00 19,9 10,6 9 5 NNO 1023,0 30
09.08.2018 15:00:00 19,4 11,0 13 7 N 1023,1 30
09.08.2018 14:00:00 19,0 11,8 11 6 N 1023,2 30
09.08.2018 13:00:00 16,2 12,1 18 10 N 1023,5 30
09.08.2018 12:00:00 17,7 13,1 13 7 N 1022,9 30
09.08.2018 11:00:00 15,7 12,4 9 5 N 1022,7 20
09.08.2018 10:00:00 14,9 13,9 9 5 N 1022,3 21
09.08.2018 09:00:00 13,3 12,8 5 3 NW 1022,0 6
09.08.2018 08:00:00 11,9 11,6 8 4 NNW 1021,4 0,7
09.08.2018 07:00:00 12,2 11,9 11 6 NW 1020,7 13
09.08.2018 06:00:00 12,3 11,8 8 4 N 1020,4 10
09.08.2018 05:00:00 13,0 12,4 9 5 N 1019,7 20
09.08.2018 04:00:00 13,1 12,3 16 9 N 1019,3 23
09.08.2018 03:00:00 13,0 12,4 11 6 N 1019,1 30
09.08.2018 02:00:00 13,5 13,0 16 9 N 1018,9 8
09.08.2018 01:00:00 14,0 13,7 11 6 N 1018,5 4,3
09.08.2018 00:00:00 13,9 13,6 9 5 NNW 1017,8 22
08.08.2018 23:00:00 14,0 13,7 8 4 N 1017,2 6
08.08.2018 22:00:00 14,2 13,7 5 3 ZO 1015,9 30
08.08.2018 21:00:00 14,7 14,2 8 4 Z 1015,8 17
08.08.2018 20:00:00 15,3 14,3 4 2 N 1015,5 6
08.08.2018 19:00:00 16,9 15,8 15 8 W 1015,2 6
08.08.2018 18:00:00 18,6 15,2 13 7 W 1014,5 30
08.08.2018 17:00:00 20,9 15,2 8 4 W 1014,2 30
08.08.2018 16:00:00 20,9 15,5 11 6 W 1014,4 30
08.08.2018 15:00:00 20,6 14,7 9 5 W 1014,9 25
08.08.2018 14:00:00 20,2 14,6 8 4 W 1015,1 20
08.08.2018 13:00:00 19,8 13,6 5 3 W 1015,4 30
08.08.2018 12:00:00 18,7 14,4 4 2 NW 1015,4 18
08.08.2018 11:00:00 17,0 14,5 8 4 ZO 1015,5 8
08.08.2018 10:00:00 16,3 14,1 4 2 Z 1015,5 7
08.08.2018 09:00:00 14,0 13,5 4 2 WNW 1015,9 6
08.08.2018 08:00:00 12,3 11,8 4 2 WNW 1015,9 2,0

tt = temperatuur
td = dauwpunt
ff = windsnelheid
dd = windrichting
ppp = luchtdruk
vv = zicht

Weerstations in de omgeving